Meteo pe oră la Czysteblota

Astăzi, 10 Aprilie, Sâmbătă

Timp Temperatura Precipitaţii Vânt Presiune Umiditate
00:00 +3°C° 0 mm 3 m/s 749 mmHg 79%
01:00 +3°C° 0 mm 3 m/s 749 mmHg 81%
02:00 +3°C° 0 mm 3 m/s 749 mmHg 82%
03:00 +2°C° 0 mm 3 m/s 749 mmHg 84%
04:00 +3°C° 0 mm 2 m/s 749 mmHg 86%
05:00 +4°C° 0 mm 2 m/s 749 mmHg 83%
06:00 +5°C° 0 mm 2 m/s 749 mmHg 80%
07:00 +5°C° 0 mm 2 m/s 750 mmHg 77%
08:00 +7°C° 0 mm 2 m/s 750 mmHg 73%
09:00 +8°C° 0 mm 2 m/s 750 mmHg 69%
10:00 +9°C° 0 mm 2 m/s 750 mmHg 65%
11:00 +9°C° 0.3 mm 2 m/s 750 mmHg 71%
12:00 +8°C° 0.3 mm 2 m/s 751 mmHg 77%
13:00 +7°C° 0.3 mm 2 m/s 751 mmHg 83%
14:00 +7°C° 0.2 mm 2 m/s 751 mmHg 85%
15:00 +6°C° 0.2 mm 2 m/s 752 mmHg 88%
16:00 +6°C° 0.2 mm 2 m/s 752 mmHg 90%
17:00 +6°C° 0.1 mm 2 m/s 752 mmHg 91%
18:00 +6°C° 0.1 mm 2 m/s 752 mmHg 93%
19:00 +5°C° 0.1 mm 2 m/s 752 mmHg 94%
20:00 +5°C° 0 mm 2 m/s 753 mmHg 94%
21:00 +5°C° 0 mm 2 m/s 753 mmHg 94%
22:00 +5°C° 0 mm 2 m/s 753 mmHg 94%
23:00 +5°C° 0 mm 2 m/s 753 mmHg 94%

Mâine, 11 Aprilie, Duminică

Timp Temperatura Precipitaţii Vânt Presiune Umiditate
00:00 +5°C° 0 mm 2 m/s 753 mmHg 94%
01:00 +5°C° 0 mm 2 m/s 753 mmHg 94%
02:00 +5°C° 0 mm 2 m/s 753 mmHg 95%
03:00 +5°C° 0 mm 2 m/s 753 mmHg 95%
04:00 +4°C° 0 mm 3 m/s 753 mmHg 96%
05:00 +5°C° 0 mm 3 m/s 753 mmHg 94%
06:00 +5°C° 0 mm 3 m/s 753 mmHg 92%
07:00 +6°C° 0 mm 4 m/s 753 mmHg 90%
08:00 +8°C° 0 mm 4 m/s 752 mmHg 83%
09:00 +10°C° 0 mm 5 m/s 752 mmHg 75%
10:00 +13°C° 0 mm 6 m/s 752 mmHg 67%
11:00 +14°C° 0 mm 6 m/s 752 mmHg 62%
12:00 +15°C° 0 mm 6 m/s 751 mmHg 57%
13:00 +16°C° 0 mm 7 m/s 751 mmHg 51%
14:00 +16°C° 0 mm 6 m/s 751 mmHg 52%
15:00 +16°C° 0 mm 5 m/s 751 mmHg 52%
16:00 +16°C° 0 mm 5 m/s 750 mmHg 53%
17:00 +15°C° 0 mm 4 m/s 751 mmHg 55%
18:00 +14°C° 0 mm 4 m/s 751 mmHg 58%
19:00 +12°C° 0 mm 4 m/s 751 mmHg 61%
20:00 +12°C° 0 mm 4 m/s 751 mmHg 62%
21:00 +11°C° 0 mm 4 m/s 751 mmHg 64%
22:00 +11°C° 0 mm 4 m/s 751 mmHg 66%
23:00 +10°C° 0 mm 4 m/s 751 mmHg 69%

Poimâine, 12 Aprilie, Luni

Timp Temperatura Precipitaţii Vânt Presiune Umiditate
00:00 +10°C° 0 mm 4 m/s 751 mmHg 72%
01:00 +10°C° 0 mm 4 m/s 751 mmHg 76%
02:00 +10°C° 0 mm 4 m/s 751 mmHg 79%
03:00 +10°C° 0 mm 4 m/s 751 mmHg 82%
04:00 +8°C° 0 mm 4 m/s 750 mmHg 86%
05:00 +8°C° 0 mm 4 m/s 750 mmHg 86%
06:00 +10°C° 0 mm 4 m/s 750 mmHg 87%
07:00 +10°C° 0 mm 4 m/s 750 mmHg 87%
08:00 +11°C° 0 mm 4 m/s 750 mmHg 80%
09:00 +12°C° 0 mm 4 m/s 750 mmHg 72%
10:00 +14°C° 0 mm 4 m/s 750 mmHg 65%
11:00 +14°C° 0 mm 4 m/s 750 mmHg 63%
12:00 +16°C° 0 mm 3 m/s 750 mmHg 61%
13:00 +16°C° 0 mm 2 m/s 750 mmHg 59%
14:00 +14°C° 0 mm 3 m/s 750 mmHg 65%
15:00 +13°C° 0 mm 4 m/s 751 mmHg 72%
16:00 +11°C° 0 mm 4 m/s 751 mmHg 78%
17:00 +9°C° 0 mm 5 m/s 751 mmHg 81%
18:00 +7°C° 0 mm 5 m/s 752 mmHg 83%
19:00 +4°C° 0 mm 6 m/s 753 mmHg 85%
20:00 +4°C° 0.1 mm 6 m/s 753 mmHg 84%
21:00 +3°C° 0.1 mm 6 m/s 753 mmHg 84%
22:00 +2°C° 0.1 mm 6 m/s 754 mmHg 83%
23:00 +2°C° 0 mm 6 m/s 754 mmHg 83%

13 Aprilie, Marţi

Timp Temperatura Precipitaţii Vânt Presiune Umiditate
00:00 +2°C° 0 mm 6 m/s 754 mmHg 83%
01:00 +2°C° 0 mm 6 m/s 754 mmHg 84%
02:00 +1°C° 0.2 mm 6 m/s 754 mmHg 86%
03:00 +1°C° 0.2 mm 5 m/s 754 mmHg 89%
04:00 0°C° 0.2 mm 5 m/s 754 mmHg 91%
05:00 0°C° 0.3 mm 5 m/s 755 mmHg 91%
06:00 0°C° 0.3 mm 5 m/s 755 mmHg 90%
07:00 0°C° 0.3 mm 5 m/s 755 mmHg 90%
08:00 0°C° 0.6 mm 4 m/s 755 mmHg 90%
09:00 0°C° 0.6 mm 4 m/s 756 mmHg 90%
10:00 0°C° 0.6 mm 4 m/s 756 mmHg 89%
11:00 +1°C° 0.4 mm 4 m/s 756 mmHg 87%
12:00 +3°C° 0.4 mm 4 m/s 756 mmHg 85%
13:00 +3°C° 0.4 mm 4 m/s 756 mmHg 83%
14:00 +4°C° 0.1 mm 4 m/s 756 mmHg 77%
15:00 +5°C° 0.1 mm 4 m/s 755 mmHg 71%
16:00 +5°C° 0.1 mm 4 m/s 755 mmHg 65%
17:00 +4°C° 0 mm 3 m/s 755 mmHg 72%
18:00 +3°C° 0 mm 3 m/s 755 mmHg 78%
19:00 +2°C° 0 mm 3 m/s 756 mmHg 85%
20:00 +1°C° 0 mm 3 m/s 756 mmHg 87%
21:00 +1°C° 0 mm 3 m/s 756 mmHg 89%
22:00 +1°C° 0 mm 2 m/s 756 mmHg 91%
23:00 +1°C° 0 mm 2 m/s 756 mmHg 90%

14 Aprilie, Miercuri

Timp Temperatura Precipitaţii Vânt Presiune Umiditate
00:00 +1°C° 0 mm 2 m/s 756 mmHg 89%
01:00 0°C° 0 mm 3 m/s 755 mmHg 88%
02:00 0°C° 0 mm 3 m/s 755 mmHg 88%
03:00 0°C° 0 mm 3 m/s 755 mmHg 87%
04:00 0°C° 0 mm 3 m/s 755 mmHg 86%
05:00 0°C° 0 mm 3 m/s 755 mmHg 86%
06:00 +1°C° 0 mm 3 m/s 755 mmHg 85%
07:00 +1°C° 0 mm 3 m/s 755 mmHg 85%
08:00 +1°C° 0 mm 4 m/s 755 mmHg 78%
09:00 +3°C° 0 mm 5 m/s 755 mmHg 70%
10:00 +4°C° 0 mm 6 m/s 755 mmHg 62%
11:00 +4°C° 0 mm 7 m/s 755 mmHg 59%
12:00 +5°C° 0 mm 7 m/s 755 mmHg 55%
13:00 +5°C° 0 mm 7 m/s 755 mmHg 52%
14:00 +4°C° 0 mm 7 m/s 755 mmHg 55%
15:00 +4°C° 0 mm 7 m/s 755 mmHg 57%
16:00 +4°C° 0 mm 7 m/s 755 mmHg 60%
17:00 +3°C° 0 mm 7 m/s 755 mmHg 65%
18:00 +2°C° 0 mm 7 m/s 755 mmHg 70%
19:00 +1°C° 0 mm 6 m/s 755 mmHg 74%
20:00 -1°C° 0 mm 6 m/s 755 mmHg 76%
21:00 -1°C° 0 mm 6 m/s 755 mmHg 77%
22:00 -1°C° 0 mm 6 m/s 755 mmHg 78%
23:00 -1°C° 0 mm 6 m/s 755 mmHg 77%

15 Aprilie, Joi

Timp Temperatura Precipitaţii Vânt Presiune Umiditate
00:00 -1°C° 0 mm 6 m/s 755 mmHg 76%
01:00 -1°C° 0 mm 7 m/s 755 mmHg 76%
02:00 -1°C° 0 mm 7 m/s 754 mmHg 77%
03:00 -1°C° 0 mm 7 m/s 754 mmHg 77%
04:00 -1°C° 0 mm 7 m/s 754 mmHg 78%
05:00 -1°C° 0 mm 7 m/s 754 mmHg 78%
06:00 -1°C° 0 mm 7 m/s 754 mmHg 77%
07:00 -1°C° 0 mm 8 m/s 754 mmHg 77%
08:00 -1°C° 0.3 mm 8 m/s 754 mmHg 81%
09:00 -1°C° 0.3 mm 8 m/s 754 mmHg 84%
10:00 -1°C° 0.3 mm 8 m/s 754 mmHg 88%
11:00 -1°C° 0.8 mm 8 m/s 754 mmHg 90%
12:00 -1°C° 0.8 mm 7 m/s 754 mmHg 92%
13:00 -1°C° 0.8 mm 7 m/s 754 mmHg 94%
14:00 -1°C° 0.7 mm 7 m/s 754 mmHg 94%
15:00 -1°C° 0.7 mm 7 m/s 754 mmHg 95%
16:00 -1°C° 0.7 mm 7 m/s 754 mmHg 95%
17:00 -1°C° 0.2 mm 7 m/s 755 mmHg 95%
18:00 0°C° 0.2 mm 7 m/s 755 mmHg 94%
19:00 0°C° 0.2 mm 7 m/s 755 mmHg 94%
20:00 0°C° 0 mm 7 m/s 755 mmHg 90%
21:00 +2°C° 0 mm 7 m/s 755 mmHg 85%
22:00 +2°C° 0 mm 7 m/s 756 mmHg 81%
23:00 +2°C° 0 mm 7 m/s 756 mmHg 81%
Arată mai mult

Formular de consimțământ

Meteoprog și furnizorii noștri de servicii pot stoca și accesa date personale, precum cookies, identificatori de dispozitiv sau alte tehnologii similare pe dispozitivul dumneavoastră și procesa astfel de date pentru a personaliza conținutul și reclamele, dar și pentru a oferi caracteristici de social media și pentru a analiza traficul.

  • Stocarea și/sau accesarea informațiilor pe dispozitivul dumneavoastră

    Cookies, identificatori de dispozitiv sau alte informații pot fi stocate sau accesate pe dispozitiv în scopurile indicate mai sus.

  • Reclame și conținut personalizat, evaluarea reclamelor și a conținutului, informații despre audiențe și dezvoltarea produselor

    Reclamele și conținutul pot fi personalizate pe baza unui profil. Pot fi adăugate date suplimentare pentru a personaliza mai bine reclamele și conținutul. Performanța reclamelor și conținutului poate fi măsurată. Pot fi obținute informații despre utilizatorii care au văzut reclamele și conținutul. Aceste date pot fi utilizate pentru a dezvolta sau îmbunătăți experiența utilizatorilor, sistemele și software-ul.

Dând clic pe ‘Sunt de acord’, permiteți utilizarea cookie-urilor menționate, a identificatorilor de dispozitiv, balizelor web sau altor tehnologii similare. Setările pot fi modificate din browser-ul dispozitivului dumneavoastră.

În anumite scopuri, interesele legitime pot prima asupra consimțământului. Puteți citi mai multe informații în acest sens în Politica privind Confidențialitatea Datelor și Cookie.